Weather in Pokrovka

Russia / Samara Oblast     53°17′18″N   50°51′17″E
temp.,
°C
wind,
m/s
gust,
m/s
humid.,
%
clouds,
%
prec.,
mm/h
press.,
hPa
HPBL,
m
2 march, tue
tue201:00−18sw33980 0.0 102028
04:00−15sw4109749 0.0 1018211
07:00−12sw61193100 0.0 1014318
10:00−9sw81394100 0.4 1011528
13:00−5sw91495100 1.9 1008734
16:00−1sw91594100 2.6 1005833
19:00−1sw81493100 1.0 1003737
22:000w61097100 1.4 1003528
3 march, wed
wed301:00−5w349592 0.1 100263
04:00−7w339388 0.1 100325
07:00−9w23930 0.0 100322
10:00−6w359332 0.0 1004166
13:00−2wnw368977 0.0 1004641
16:00−3nw588587 0.1 1005814
19:00−7wnw479089 0.0 1006149
22:00−10wnw499485 0.1 1008159
4 march, thu
thu401:00−10wnw479468 0.0 1008117
04:00−13w349534 0.0 101064
07:00−14wsw47960 0.0 1010113
10:00−10wsw5109535 0.0 1011284
13:00−5sw61093100 0.0 1009486
16:00−4sw8139199 0.1 1008832
19:00−3sw101793100 0.3 1006742
22:00−1sw101789100 0.4 1005885
5 march, fri
fri501:00−1sw91687100 0.0 1004924
04:00−1sw81687100 0.0 1003785
07:00−1sw81689100 0.0 1004677
10:000wsw81394100 0.6 1005762
13:000sw612100100 0.1 1006636
16:00+1wsw713100100 0.7 1007522
19:00−2n2697100 1.4 1008266
22:00−4n1197100 1.9 101023
6 march, sat
sat601:00−4ene2297100 0.5 101078
04:00−3ese4598100 2.4 1007159
07:00+1ssw613100100 3.6 1003459
10:00+1ssw91699100 6.5 1000654
13:00+1sw916100100 1.3 999672
16:00−3wnw81196100 2.8 1001520
19:00−9wnw489196 0.1 1005191
22:00−12wnw349461 0.1 100855